Regional Weather Roundup
Issued by NWS

Home | Current Version | Previous Version | Text Only | Print | Product List | Glossary Off
Versions: 1 2 3 4 5 6 7 8 9 10 11 12 13 14 15 16 17 18 19 20 21 22 23 24 25 26 27 28 29 30 31 32 33 34 35 36 37 38 39 40 41 42 43 44 45 46 47 48 49 50

000
ASUS43 KLSX 282359
RWRMO

WEATHER SUMMARY FOR MISSOURI
NATIONAL WEATHER SERVICE SPRINGFIELD MO
600 PM CST SAT FEB 28 2015

NOTE: "FAIR" INDICATES FEW OR NO CLOUDS BELOW 12,000 FEET WITH NO
       SIGNIFICANT WEATHER AND/OR OBSTRUCTIONS TO VISIBILITY.
       CURRENT SKY AND/OR WEATHER CONDITIONS ARE NOT AVAILABLE FOR
       CHILLICOTHE AND FARMINGTON.

MOZ001>031-035>038-043-044-053-054-010100-
...NORTHERN AND WESTERN MISSOURI...

CITY           SKY/WX    TMP DP  RH WIND       PRES   REMARKS
KANSAS CTY INT LGT SNOW  22  18  85 SE6       30.37S FOG     WCI  14
6HR MIN TEMP:  21; 6HR MAX TEMP:  23; 6HR PCP:  0.06;

KANSAS C DTWN  LGT SNOW  24  18  77 SE6       30.39S WCI  17
6HR MIN TEMP:  23; 6HR MAX TEMP:  25; 6HR PCP: TRACE;

LEE`S SUMMIT   LGT SNOW  22  18  85 E5        30.37F FOG     WCI  16
6HR MIN TEMP:  21; 6HR MAX TEMP:  23; 6HR PCP:  0.07;

ST JOSEPH      LGT SNOW  22  18  85 S5        30.40S FOG     WCI  16
6HR MIN TEMP:  22; 6HR MAX TEMP:  24; 6HR PCP:  0.02;

CHILLICOTHE      N/A     23  17  78 SE6       30.42F WCI  16
6HR MIN TEMP:  23; 6HR MAX TEMP:  24; 6HR PCP:  0.04;

KIRKSVILLE     LGT SNOW  20  18  92 E9        30.42F FOG     WCI   9
6HR MIN TEMP:  20; 6HR MAX TEMP:  23; 6HR PCP:  0.04;


$$
MOZ066>068-077>081-088>096-101>105-010100-
...SOUTHWEST MISSOURI...

CITY           SKY/WX    TMP DP  RH WIND       PRES   REMARKS
SPRINGFIELD    LGT SNOW  25  21  85 SE14      30.34F VSB 3/4 WCI  13
6HR MIN TEMP:  23; 6HR MAX TEMP:  25; 6HR PCP:  0.23;

JOPLIN         LGT SNOW  25  23  92 CALM      30.36S VSB 3/4
6HR MIN TEMP:  23; 6HR MAX TEMP:  25; 6HR PCP:  0.21;


$$
MOZ032>034-039>042-045>050-055>058-069>072-010100-
...CENTRAL MISSOURI...

CITY           SKY/WX    TMP DP  RH WIND       PRES   REMARKS
COLUMBIA       SNOW      23  21  92 E7        30.42S VSB 1/2 WCI  15
6HR MIN TEMP:  23; 6HR MAX TEMP:  24; 6HR PCP:  0.23;

JEFFERSON CITY SNOW      24  22  91 E6        30.44F VSB 1/2 WCI  17
6HR MIN TEMP:  23; 6HR MAX TEMP:  24;

ROLLA          SNOW      24  21  88 E7        30.38S VSB 1/2 WCI  16
6HR MIN TEMP:  22; 6HR MAX TEMP:  24; 6HR PCP:  0.17;

SEDALIA        SNOW      24  21  88 E5        30.40F VSB 1/2 WCI  18
6HR MIN TEMP:  23; 6HR MAX TEMP:  24; 6HR PCP:  0.19;

OSAGE BEACH    CLOUDY    25  21  86 E5        30.40F VSB 3/4 WCI  19

$$
MOZ051-052-059>065-010100-
...EAST CENTRAL MISSOURI...

CITY           SKY/WX    TMP DP  RH WIND       PRES   REMARKS
ST LOUIS INTL  SNOW      25  21  85 E3        30.48S VSB 1/2
6HR MIN TEMP:  25; 6HR MAX TEMP:  28; 6HR PCP:  0.14;

SPIRIT OF STL  SNOW      24  22  91 E3        30.47S VSB 1/2
6HR MIN TEMP:  24; 6HR MAX TEMP:  27; 6HR PCP:  0.10;

ST CHARLES     SNOW      24  22  91 E6        30.49S VSB 1/2 WCI  17
6HR MIN TEMP:  23; 6HR MAX TEMP:  26; 6HR PCP: TRACE;


$$
MOZ072>076-082>087-097>100-106>115-010100-
...SOUTH CENTRAL AND SOUTHEAST MISSOURI...

CITY           SKY/WX    TMP DP  RH WIND       PRES   REMARKS
CAPE GIRARDEAU CLOUDY    32  21  64 N6        30.46R WCI  26
6HR MIN TEMP:  30; 6HR MAX TEMP:  33;

FARMINGTON     CLOUDY    25  23  93 E5        30.47R VSB 1   WCI  19
6HR MIN TEMP:  25; 6HR MAX TEMP:  27; 6HR PCP:  0.02;

POPLAR BLUFF   MIX PCPN  29  19  66 N8        30.45F WCI  21
6HR MIN TEMP:  25; 6HR MAX TEMP:  29; 6HR PCP:  0.01;

WEST PLAINS    SNOW      25  21  85 E5        30.40R VSB 1/2 WCI  19
6HR MIN TEMP:  22; 6HR MAX TEMP:  25; 6HR PCP:  0.15;


$$


USA.gov is the U.S. government's official web portal to all federal, state and local government web resources and services.